• In Hungary
  • List of Countries
  • For 7 days
  • Water Temperature
  • Satellite Maps
  • Weather Map
  • News
  • Weather Widgets
  • user-avatar
    Login

    Hourly Weather Labowiec

    Today, 20 January, Saturday

    Time Temperature Precipitation Wind Pressure Humidity
    00:00 -1°C° 0 mm 1 mps 711 mmHg 86%
    01:00 -1°C° 0 mm 1 mps 711 mmHg 87%
    02:00 -2°C° 0 mm 1 mps 711 mmHg 87%
    03:00 -2°C° 0 mm 1 mps 711 mmHg 87%
    04:00 -2°C° 0 mm 1 mps 711 mmHg 87%
    05:00 -3°C° 0 mm 1 mps 711 mmHg 87%
    06:00 -3°C° 0 mm 1 mps 711 mmHg 87%
    07:00 -3°C° 0 mm 1 mps 711 mmHg 87%
    08:00 -2°C° 0 mm 1 mps 711 mmHg 83%
    09:00 -1°C° 0 mm 1 mps 712 mmHg 78%
    10:00 0°C° 0 mm 1 mps 712 mmHg 74%
    11:00 +1°C° 0 mm 1 mps 711 mmHg 72%
    12:00 +1°C° 0 mm 1 mps 711 mmHg 71%
    13:00 +1°C° 0 mm 1 mps 711 mmHg 70%
    14:00 0°C° 0.1 mm 1 mps 711 mmHg 74%
    15:00 0°C° 0.1 mm 1 mps 710 mmHg 78%
    16:00 -1°C° 0.1 mm 1 mps 710 mmHg 83%
    17:00 -1°C° 0 mm 1 mps 710 mmHg 85%
    18:00 -1°C° 0 mm 1 mps 710 mmHg 87%
    19:00 -2°C° 0 mm 1 mps 709 mmHg 89%
    20:00 -4°C° 0 mm 2 mps 709 mmHg 89%
    21:00 -4°C° 0 mm 2 mps 709 mmHg 90%
    22:00 -4°C° 0 mm 2 mps 709 mmHg 90%
    23:00 -4°C° 0 mm 2 mps 708 mmHg 90%

    Tomorrow, 21 January, Sunday

    Time Temperature Precipitation Wind Pressure Humidity
    00:00 -4°C° 0 mm 2 mps 708 mmHg 90%
    01:00 -4°C° 0 mm 2 mps 708 mmHg 90%
    02:00 -4°C° 0.1 mm 2 mps 708 mmHg 90%
    03:00 -4°C° 0.1 mm 2 mps 707 mmHg 90%
    04:00 -4°C° 0.1 mm 2 mps 707 mmHg 90%
    05:00 -4°C° 0.1 mm 2 mps 707 mmHg 90%
    06:00 -4°C° 0.1 mm 2 mps 707 mmHg 90%
    07:00 -4°C° 0.1 mm 2 mps 707 mmHg 89%
    08:00 -3°C° 0.1 mm 2 mps 707 mmHg 87%
    09:00 -3°C° 0.1 mm 2 mps 707 mmHg 85%
    10:00 -2°C° 0.1 mm 2 mps 708 mmHg 82%
    11:00 -2°C° 0.2 mm 2 mps 708 mmHg 81%
    12:00 -2°C° 0.2 mm 2 mps 708 mmHg 80%
    13:00 -1°C° 0.2 mm 2 mps 708 mmHg 79%
    14:00 -2°C° 0.2 mm 2 mps 708 mmHg 83%
    15:00 -2°C° 0.2 mm 2 mps 709 mmHg 87%
    16:00 -3°C° 0.2 mm 2 mps 709 mmHg 91%
    17:00 -3°C° 0.4 mm 2 mps 710 mmHg 92%
    18:00 -3°C° 0.4 mm 2 mps 710 mmHg 94%
    19:00 -4°C° 0.4 mm 3 mps 710 mmHg 95%
    20:00 -4°C° 0.5 mm 3 mps 711 mmHg 94%
    21:00 -4°C° 0.5 mm 3 mps 711 mmHg 94%
    22:00 -4°C° 0.5 mm 4 mps 712 mmHg 93%
    23:00 -5°C° 0.3 mm 4 mps 712 mmHg 93%

    Day after tomorrow, 22 January, Monday

    Time Temperature Precipitation Wind Pressure Humidity
    00:00 -5°C° 0.3 mm 4 mps 713 mmHg 93%
    01:00 -5°C° 0.3 mm 4 mps 713 mmHg 92%
    02:00 -5°C° 0.2 mm 4 mps 713 mmHg 92%
    03:00 -6°C° 0.2 mm 3 mps 713 mmHg 92%
    04:00 -6°C° 0.2 mm 3 mps 713 mmHg 93%
    05:00 -6°C° 0.1 mm 3 mps 713 mmHg 93%
    06:00 -6°C° 0.1 mm 3 mps 714 mmHg 93%
    07:00 -6°C° 0.1 mm 2 mps 714 mmHg 93%
    08:00 -5°C° 0 mm 2 mps 714 mmHg 90%
    09:00 -5°C° 0 mm 2 mps 714 mmHg 88%
    10:00 -5°C° 0 mm 2 mps 715 mmHg 85%
    11:00 -4°C° 0 mm 2 mps 715 mmHg 84%
    12:00 -4°C° 0 mm 2 mps 714 mmHg 82%
    13:00 -4°C° 0 mm 2 mps 714 mmHg 80%
    14:00 -4°C° 0 mm 2 mps 715 mmHg 84%
    15:00 -5°C° 0 mm 2 mps 715 mmHg 87%
    16:00 -5°C° 0 mm 2 mps 715 mmHg 90%
    17:00 -5°C° 0 mm 2 mps 715 mmHg 91%
    18:00 -6°C° 0 mm 2 mps 716 mmHg 92%
    19:00 -4°C° 0 mm 1 mps 716 mmHg 94%
    20:00 -4°C° 0 mm 1 mps 716 mmHg 94%
    21:00 -4°C° 0 mm 1 mps 717 mmHg 94%
    22:00 -4°C° 0 mm 1 mps 717 mmHg 94%
    23:00 -6°C° 0 mm 1 mps 717 mmHg 93%

    23 January, Tuesday

    Time Temperature Precipitation Wind Pressure Humidity
    00:00 -6°C° 0 mm 1 mps 718 mmHg 93%
    01:00 -6°C° 0 mm 1 mps 718 mmHg 93%
    02:00 -6°C° 0 mm 1 mps 718 mmHg 93%
    03:00 -7°C° 0 mm 1 mps 718 mmHg 93%
    04:00 -7°C° 0 mm 1 mps 718 mmHg 92%
    05:00 -7°C° 0 mm 1 mps 719 mmHg 92%
    06:00 -7°C° 0 mm 1 mps 719 mmHg 91%
    07:00 -7°C° 0 mm 1 mps 720 mmHg 91%
    08:00 -6°C° 0 mm 1 mps 720 mmHg 87%
    09:00 -4°C° 0 mm 1 mps 721 mmHg 83%
    10:00 -3°C° 0 mm 1 mps 721 mmHg 80%
    11:00 -2°C° 0 mm 1 mps 722 mmHg 77%
    12:00 -1°C° 0 mm 1 mps 722 mmHg 74%
    13:00 0°C° 0 mm 1 mps 722 mmHg 72%
    14:00 -1°C° 0 mm 1 mps 722 mmHg 76%
    15:00 -2°C° 0 mm 1 mps 722 mmHg 81%
    16:00 -3°C° 0 mm 1 mps 723 mmHg 86%
    17:00 -3°C° 0 mm 1 mps 723 mmHg 86%
    18:00 -4°C° 0 mm 1 mps 723 mmHg 87%
    19:00 -6°C° 0 mm 1 mps 724 mmHg 88%
    20:00 -6°C° 0 mm 1 mps 724 mmHg 88%
    21:00 -6°C° 0 mm 1 mps 724 mmHg 87%
    22:00 -6°C° 0 mm 1 mps 725 mmHg 86%
    23:00 -6°C° 0 mm 1 mps 725 mmHg 86%

    24 January, Wednesday

    Time Temperature Precipitation Wind Pressure Humidity
    00:00 -6°C° 0 mm 1 mps 725 mmHg 85%
    01:00 -6°C° 0 mm 1 mps 725 mmHg 85%
    02:00 -6°C° 0 mm 1 mps 725 mmHg 85%
    03:00 -6°C° 0 mm 1 mps 725 mmHg 85%
    04:00 -7°C° 0 mm 2 mps 725 mmHg 85%
    05:00 -7°C° 0 mm 2 mps 725 mmHg 86%
    06:00 -7°C° 0 mm 2 mps 725 mmHg 86%
    07:00 -7°C° 0 mm 2 mps 725 mmHg 87%
    08:00 -6°C° 0 mm 2 mps 725 mmHg 84%
    09:00 -5°C° 0 mm 2 mps 726 mmHg 82%
    10:00 -4°C° 0 mm 2 mps 726 mmHg 80%
    11:00 -3°C° 0 mm 2 mps 726 mmHg 80%
    12:00 -2°C° 0 mm 3 mps 726 mmHg 79%
    13:00 -1°C° 0 mm 3 mps 726 mmHg 79%
    14:00 -2°C° 0 mm 3 mps 725 mmHg 82%
    15:00 -2°C° 0 mm 2 mps 725 mmHg 85%
    16:00 -3°C° 0 mm 2 mps 725 mmHg 88%
    17:00 -4°C° 0 mm 2 mps 725 mmHg 89%
    18:00 -4°C° 0 mm 2 mps 725 mmHg 90%
    19:00 -5°C° 0 mm 2 mps 725 mmHg 91%
    20:00 -5°C° 0 mm 2 mps 725 mmHg 90%
    21:00 -5°C° 0 mm 2 mps 725 mmHg 90%
    22:00 -5°C° 0 mm 2 mps 725 mmHg 90%
    23:00 -5°C° 0 mm 2 mps 725 mmHg 90%

    25 January, Thursday

    Time Temperature Precipitation Wind Pressure Humidity
    00:00 -5°C° 0 mm 2 mps 725 mmHg 90%
    01:00 -5°C° 0 mm 2 mps 724 mmHg 90%
    02:00 -5°C° 0 mm 2 mps 724 mmHg 90%
    03:00 -5°C° 0 mm 2 mps 724 mmHg 89%
    04:00 -5°C° 0 mm 2 mps 724 mmHg 89%
    05:00 -5°C° 0 mm 2 mps 723 mmHg 89%
    06:00 -5°C° 0 mm 2 mps 723 mmHg 89%
    07:00 -5°C° 0 mm 2 mps 723 mmHg 88%
    08:00 -4°C° 0 mm 2 mps 723 mmHg 85%
    09:00 -4°C° 0 mm 3 mps 723 mmHg 82%
    10:00 -2°C° 0 mm 3 mps 723 mmHg 79%
    11:00 -1°C° 0 mm 3 mps 723 mmHg 78%
    12:00 0°C° 0 mm 3 mps 723 mmHg 77%
    13:00 +1°C° 0 mm 3 mps 722 mmHg 76%
    14:00 0°C° 0 mm 3 mps 722 mmHg 78%
    15:00 -1°C° 0 mm 3 mps 722 mmHg 81%
    16:00 -2°C° 0 mm 2 mps 721 mmHg 83%
    17:00 -2°C° 0 mm 3 mps 721 mmHg 83%
    18:00 -4°C° 0 mm 3 mps 721 mmHg 82%
    19:00 -4°C° 0 mm 3 mps 721 mmHg 82%
    20:00 -4°C° 0 mm 3 mps 721 mmHg 79%
    21:00 -5°C° 0 mm 3 mps 721 mmHg 77%
    22:00 -5°C° 0 mm 3 mps 721 mmHg 75%
    23:00 -5°C° 0 mm 3 mps 721 mmHg 73%
    Show more